Location: *
(46.1833°N, 22.7667°E)
Time: 19:04:33
(UTC+00:00)

Cosmos 1939 Rocket - Pass Details

Date: 17 September 2019
Orbit: 534 x 583 km, 97.4° (Epoch: 21 October)

Event Time Altitude Azimuth Distance (km) Brightness Sun altitude
Rises 17:06:49 0° 158° (SSE) 2,682 6.0 -5.9°
Reaches altitude 10° 17:08:56 10° 155° (SSE) 1,791 5.1 -6.3°
Maximum altitude 17:12:45 62° 74° (ENE) 607 2.8 -6.9°
Drops below altitude 10° 17:16:35 10° 354° (N) 1,800 5.7 -7.6°
Sets 17:18:43 0° 351° (N) 2,697 6.6 -7.9°
